Temp
-13 -15 -16 -16 -16 -16 -16 -16 -16 -16 -16 -15 -16 -15 -15 -15 -15 -15 -15 -15 -16 -16 -16 -17 -18 -19 -20 -21 -22 -22 -22 -22 -22 -22 -21 -20 -20 -19 -18 -18 -17 -15 -14 -14 -14 -13 -13 -12 -12 -12 -11 -10 -9 -8
-14 -16 -16 -16 -16 -16 -16 -16 -16 -16 -16 -16 -16 -16 -16 -16 -15 -15 -16 -16 -16 -16 -16 -17 -18 -19 -20 -21 -22 -22 -22 -22 -22 -21 -20 -19 -19 -19 -18 -17 -16 -15 -14 -14 -14 -13 -12 -12 -12 -11 -10 -9 -9 -9
-16 -16 -16 -16 -16 -16 -16 -16 -16 -16 -16 -16 -17 -16 -16 -16 -16 -16 -16 -16 -16 -17 -17 -17 -17 -18 -18 -20 -21 -22 -22 -22 -21 -21 -20 -19 -19 -19 -18 -18 -17 -16 -14 -13 -14 -13 -12 -12 -11 -11 -11 -9 -9 -9
-16 -16 -16 -16 -16 -16 -16 -16 -16 -16 -16 -17 -17 -17 -17 -16 -16 -16 -16 -16 -17 -17 -17 -17 -17 -18 -18 -19 -20 -21 -22 -22 -21 -20 -20 -19 -18 -18 -18 -18 -17 -16 -15 -13 -14 -13 -13 -12 -11 -11 -11 -9 -9 -8
-16 -16 -16 -16 -16 -16 -17 -16 -17 -16 -16 -17 -17 -17 -17 -17 -16 -17 -17 -16 -17 -17 -17 -17 -17 -18 -18 -18 -19 -20 -21 -21 -21 -20 -19 -17 -17 -17 -17 -17 -16 -16 -15 -13 -14 -13 -13 -12 -12 -12 -10 -9 -9 -8
-16 -16 -17 -16 -16 -16 -16 -17 -17 -17 -16 -17 -17 -17 -17 -17 -17 -17 -17 -17 -17 -18 -18 -18 -17 -18 -18 -18 -18 -18 -19 -19 -20 -20 -18 -16 -15 -15 -15 -15 -15 -16 -17 -16 -14 -14 -13 -12 -12 -12 -11 -10 -10 -9
-16 -16 -17 -16 -17 -17 -17 -17 -17 -17 -17 -17 -17 -17 -17 -17 -17 -17 -17 -17 -18 -18 -18 -18 -18 -18 -18 -18 -18 -19 -19 -18 -18 -18 -17 -17 -15 -14 -14 -14 -14 -14 -15 -15 -13 -12 -12 -11 -12 -12 -11 -11 -10 -10
-16 -16 -17 -16 -17 -17 -17 -17 -17 -17 -17 -17 -17 -17 -17 -17 -18 -17 -17 -18 -18 -18 -18 -18 -18 -18 -19 -19 -18 -18 -18 -18 -18 -18 -18 -17 -17 -17 -16 -15 -14 -13 -13 -14 -15 -13 -12 -11 -11 -12 -12 -12 -11 -11
-16 -16 -17 -17 -17 -17 -17 -17 -17 -17 -17 -17 -17 -17 -17 -17 -17 -17 -17 -17 -18 -18 -18 -18 -18 -18 -18 -18 -19 -19 -18 -18 -18 -17 -17 -17 -17 -16 -17 -17 -17 -17 -15 -13 -14 -14 -13 -11 -11 -11 -11 -11 -12 -12
-16 -16 -17 -17 -17 -17 -17 -17 -17 -17 -17 -17 -17 -17 -17 -17 -17 -17 -17 -18 -18 -18 -18 -18 -18 -18 -18 -18 -18 -18 -18 -18 -18 -17 -17 -17 -17 -17 -17 -17 -17 -16 -16 -15 -15 -13 -13 -13 -13 -13 -13 -12 -12 -11
-16 -16 -17 -17 -17 -17 -17 -17 -17 -17 -17 -17 -18 -18 -18 -18 -18 -18 -18 -18 -18 -18 -18 -18 -18 -18 -18 -18 -18 -19 -19 -18 -18 -18 -17 -18 -18 -17 -17 -17 -16 -16 -15 -15 -15 -15 -15 -14 -13 -13 -13 -13 -12 -12
-16 -17 -17 -16 -17 -17 -17 -17 -17 -17 -17 -17 -18 -18 -18 -18 -18 -18 -18 -18 -18 -18 -18 -18 -18 -18 -18 -18 -18 -18 -18 -18 -18 -18 -18 -18 -17 -18 -17 -17 -17 -17 -17 -17 -17 -17 -17 -17 -16 -14 -13 -12 -12 -13
-16 -16 -16 -16 -16 -17 -17 -17 -17 -17 -17 -17 -18 -18 -18 -18 -18 -18 -18 -18 -18 -18 -18 -18 -18 -19 -18 -18 -18 -18 -18 -18 -18 -18 -18 -18 -19 -18 -17 -18 -18 -18 -18 -18 -17 -17 -17 -17 -16 -16 -15 -14 -13 -12
-16 -16 -16 -16 -16 -17 -17 -17 -17 -17 -18 -18 -18 -18 -18 -18 -18 -18 -18 -18 -18 -19 -19 -19 -19 -19 -19 -19 -19 -19 -19 -19 -19 -19 -19 -19 -19 -19 -19 -18 -18 -18 -18 -18 -18 -18 -17 -17 -17 -16 -15 -15 -15 -15
-16 -16 -16 -16 -16 -17 -17 -17 -17 -17 -17 -18 -18 -18 -18 -18 -18 -18 -19 -19 -19 -19 -19 -19 -19 -19 -19 -19 -19 -19 -19 -19 -19 -19 -19 -19 -19 -19 -19 -19 -19 -19 -19 -19 -19 -19 -18 -18 -18 -18 -17 -17 -17 -17
-16 -16 -16 -16 -17 -17 -17 -17 -17 -17 -17 -17 -18 -18 -18 -18 -18 -19 -19 -19 -19 -19 -19 -19 -19 -19 -19 -20 -19 -19 -19 -20 -20 -20 -20 -20 -20 -20 -19 -20 -19 -19 -19 -20 -20 -19 -19 -19 -19 -19 -18 -18 -18 -17
-16 -16 -16 -16 -16 -16 -17 -17 -17 -17 -17 -17 -17 -18 -18 -18 -18 -18 -19 -19 -19 -19 -19 -19 -19 -19 -20 -19 -20 -20 -20 -20 -20 -20 -20 -20 -21 -21 -21 -20 -20 -20 -20 -20 -20 -20 -20 -20 -19 -19 -19 -19 -19 -19
-16 -16 -16 -16 -16 -16 -16 -16 -17 -17 -17 -17 -17 -17 -18 -18 -18 -18 -18 -19 -19 -19 -19 -19 -19 -19 -19 -20 -20 -20 -20 -20 -20 -21 -21 -21 -22 -22 -21 -21 -21 -21 -20 -20 -20 -20 -20 -20 -20 -20 -19 -19 -19 -19
-16 -16 -16 -16 -16 -16 -16 -16 -16 -16 -17 -17 -17 -18 -18 -18 -19 -18 -18 -18 -18 -18 -19 -19 -19 -19 -20 -20 -20 -20 -20 -20 -21 -21 -22 -22 -22 -22 -22 -22 -22 -22 -22 -21 -20 -20 -20 -21 -21 -20 -20 -20 -20 -19
-16 -16 -16 -16 -16 -16 -16 -16 -16 -16 -17 -17 -17 -18 -18 -18 -19 -19 -19 -19 -19 -19 -19 -20 -20 -20 -21 -20 -20 -21 -21 -21 -21 -22 -22 -23 -22 -22 -22 -22 -22 -22 -22 -22 -21 -21 -21 -21 -21 -21 -21 -20 -20 -20
-16 -16 -16 -16 -16 -16 -16 -16 -16 -16 -17 -17 -18 -18 -19 -19 -18 -18 -19 -19 -20 -20 -20 -20 -20 -20 -21 -21 -21 -21 -22 -22 -22 -23 -23 -23 -23 -23 -22 -23 -23 -23 -23 -22 -22 -22 -22 -21 -21 -21 -21 -22 -21 -21
-16 -16 -15 -15 -15 -16 -16 -16 -16 -16 -17 -18 -18 -18 -18 -18 -18 -18 -18 -19 -19 -19 -19 -20 -20 -20 -20 -21 -22 -22 -22 -23 -23 -23 -23 -23 -23 -23 -23 -22 -23 -23 -23 -23 -23 -23 -23 -22 -22 -22 -21 -22 -22 -22
-15 -15 -15 -15 -15 -16 -16 -16 -16 -17 -17 -17 -18 -18 -17 -18 -17 -18 -18 -18 -19 -19 -19 -20 -20 -20 -21 -22 -22 -23 -23 -23 -23 -23 -22 -22 -23 -23 -23 -23 -23 -23 -23 -23 -23 -23 -23 -23 -23 -23 -22 -22 -22 -22
-15 -15 -15 -15 -15 -16 -16 -16 -17 -16 -17 -17 -18 -18 -18 -18 -18 -18 -19 -19 -19 -20 -20 -20 -21 -21 -22 -22 -22 -22 -23 -23 -23 -23 -23 -23 -24 -24 -24 -24 -24 -24 -24 -24 -24 -24 -24 -24 -24 -24 -24 -23 -23 -23
-15 -15 -15 -15 -16 -16 -16 -16 -16 -17 -17 -17 -17 -17 -18 -18 -18 -18 -19 -19 -20 -20 -20 -21 -21 -21 -22 -22 -22 -23 -23 -23 -24 -24 -25 -25 -25 -25 -25 -25 -24 -24 -25 -25 -25 -25 -25 -25 -25 -25 -25 -25 -24 -24
-15 -15 -15 -16 -16 -16 -16 -16 -16 -16 -17 -17 -17 -17 -17 -17 -18 -19 -19 -19 -20 -20 -21 -21 -21 -22 -22 -22 -22 -22 -22 -23 -23 -23 -24 -24 -25 -26 -26 -26 -26 -26 -26 -26 -26 -26 -26 -26 -26 -26 -26 -26 -25 -25
-15 -15 -16 -16 -16 -16 -16 -16 -16 -17 -17 -17 -17 -18 -18 -18 -19 -19 -19 -20 -20 -20 -21 -21 -21 -22 -22 -22 -22 -22 -22 -22 -23 -23 -24 -24 -25 -25 -26 -26 -27 -27 -27 -27 -27 -26 -27 -27 -26 -26 -26 -26 -26 -25
-15 -15 -15 -16 -16 -16 -16 -16 -17 -17 -17 -17 -17 -18 -19 -19 -19 -19 -19 -20 -20 -20 -21 -21 -21 -21 -22 -22 -22 -22 -22 -23 -23 -23 -24 -25 -25 -26 -27 -27 -28 -28 -28 -28 -28 -27 -27 -27 -27 -27 -27 -27 -27 -26
-15 -15 -16 -16 -16 -16 -16 -16 -17 -17 -17 -17 -18 -18 -18 -19 -19 -19 -20 -20 -20 -20 -21 -21 -21 -21 -21 -22 -22 -22 -23 -23 -23 -23 -24 -25 -26 -27 -27 -28 -28 -28 -28 -28 -28 -28 -28 -28 -28 -27 -28 -27 -27 -27
-15 -15 -16 -16 -16 -16 -16 -16 -17 -17 -17 -17 -17 -18 -18 -19 -18 -19 -20 -20 -20 -21 -21 -21 -21 -21 -22 -22 -22 -23 -23 -23 -23 -24 -24 -25 -26 -26 -27 -27 -28 -28 -28 -28 -28 -28 -28 -28 -28 -28 -28 -28 -27 -27
-16 -16 -16 -16 -16 -16 -16 -16 -16 -17 -17 -17 -17 -17 -18 -18 -19 -19 -19 -20 -20 -21 -21 -21 -22 -22 -22 -22 -22 -23 -23 -23 -23 -23 -24 -24 -25 -26 -26 -26 -27 -27 -28 -28 -28 -28 -28 -28 -28 -28 -28 -28 -27 -27
-15 -16 -16 -16 -16 -16 -16 -16 -17 -17 -17 -17 -18 -17 -18 -18 -18 -19 -19 -20 -20 -20 -21 -21 -22 -22 -22 -22 -22 -22 -22 -22 -22 -23 -23 -24 -24 -25 -25 -26 -26 -26 -27 -27 -27 -27 -27 -28 -28 -28 -28 -28 -27 -27
-16 -15 -16 -16 -16 -17 -16 -16 -16 -17 -17 -17 -17 -17 -18 -18 -18 -18 -19 -19 -20 -20 -21 -21 -21 -22 -22 -22 -22 -22 -22 -22 -23 -23 -23 -23 -23 -24 -24 -25 -25 -26 -26 -26 -26 -27 -27 -27 -27 -27 -27 -27 -27 -27
Height
5764 5757 5752 5748 5743 5739 5735 5731 5725 5719 5714 5708 5702 5696 5690 5685 5680 5673 5667 5658 5648 5637 5629 5620 5610 5601 5594 5587 5581 5577 5575 5571 5568 5564 5562 5559 5565 5569 5577 5584 5590 5600 5610 5623 5634 5647 5659 5668 5679 5689 5697 5705 5714 5724
5761 5756 5752 5748 5743 5739 5735 5731 5726 5720 5714 5708 5703 5698 5693 5687 5683 5676 5669 5662 5652 5643 5635 5624 5616 5607 5597 5590 5585 5582 5579 5576 5574 5573 5571 5571 5571 5578 5583 5589 5597 5607 5613 5622 5633 5646 5657 5666 5676 5685 5691 5702 5710 5719
5760 5756 5752 5748 5743 5738 5734 5730 5725 5720 5714 5709 5704 5699 5695 5690 5685 5678 5672 5666 5658 5649 5642 5634 5624 5615 5603 5594 5588 5586 5582 5581 5579 5579 5580 5581 5583 5587 5590 5595 5601 5607 5611 5620 5632 5645 5651 5661 5672 5680 5687 5696 5706 5715
5760 5757 5752 5747 5742 5737 5732 5728 5724 5720 5714 5709 5705 5700 5696 5692 5687 5681 5676 5670 5662 5655 5649 5641 5633 5625 5613 5603 5595 5591 5587 5587 5586 5586 5586 5587 5591 5595 5600 5604 5605 5608 5614 5618 5630 5642 5651 5657 5668 5677 5684 5694 5705 5712
5759 5756 5752 5747 5741 5735 5730 5725 5722 5719 5714 5710 5706 5701 5696 5694 5689 5683 5679 5674 5667 5660 5654 5647 5641 5633 5625 5617 5610 5604 5599 5597 5597 5597 5596 5598 5601 5606 5608 5611 5613 5615 5617 5624 5630 5639 5647 5656 5664 5673 5680 5683 5695 5703
5758 5755 5752 5747 5741 5735 5729 5724 5721 5717 5714 5710 5706 5702 5698 5694 5690 5685 5682 5676 5670 5664 5660 5654 5648 5642 5635 5630 5625 5620 5614 5609 5606 5604 5602 5604 5607 5609 5610 5613 5615 5619 5621 5623 5626 5635 5644 5650 5660 5666 5669 5665 5681 5694
5757 5755 5751 5746 5742 5736 5731 5725 5720 5717 5713 5709 5706 5702 5698 5695 5691 5687 5684 5679 5673 5669 5665 5661 5654 5648 5642 5638 5634 5630 5627 5622 5618 5615 5612 5610 5611 5612 5610 5611 5616 5619 5623 5628 5633 5637 5644 5649 5654 5660 5662 5668 5669 5676
5755 5753 5750 5745 5741 5736 5731 5726 5721 5716 5713 5709 5705 5701 5698 5695 5691 5688 5684 5679 5676 5673 5670 5664 5657 5655 5650 5646 5642 5639 5636 5633 5630 5625 5621 5617 5612 5609 5609 5610 5612 5617 5621 5626 5629 5634 5639 5645 5650 5654 5658 5662 5665 5672
5753 5752 5748 5744 5740 5736 5732 5727 5722 5717 5713 5709 5705 5701 5698 5695 5691 5688 5684 5681 5677 5676 5670 5667 5663 5659 5655 5651 5647 5645 5642 5639 5636 5632 5629 5625 5620 5615 5612 5610 5610 5612 5615 5618 5625 5628 5634 5639 5643 5644 5649 5657 5662 5665
5753 5750 5747 5742 5738 5734 5731 5727 5722 5716 5712 5709 5706 5703 5699 5696 5692 5689 5683 5681 5678 5675 5670 5667 5664 5660 5658 5653 5650 5647 5643 5640 5637 5634 5630 5627 5623 5620 5618 5617 5615 5613 5612 5614 5618 5621 5626 5629 5632 5637 5637 5642 5652 5656
5752 5750 5746 5741 5737 5733 5730 5726 5722 5718 5713 5709 5705 5702 5699 5696 5693 5690 5686 5682 5679 5676 5672 5668 5665 5661 5657 5655 5651 5647 5644 5641 5638 5636 5631 5627 5625 5622 5620 5617 5615 5613 5612 5611 5610 5609 5609 5611 5615 5620 5624 5628 5633 5640
5751 5748 5744 5740 5736 5733 5730 5726 5722 5718 5714 5711 5707 5704 5701 5698 5694 5692 5687 5684 5680 5677 5674 5670 5666 5662 5658 5654 5651 5648 5644 5641 5638 5635 5633 5629 5626 5622 5620 5618 5617 5615 5612 5611 5611 5610 5608 5604 5602 5605 5611 5616 5618 5622
5749 5747 5743 5739 5736 5733 5730 5726 5723 5719 5716 5711 5707 5705 5702 5699 5695 5691 5688 5684 5680 5677 5673 5670 5666 5663 5659 5655 5652 5649 5645 5641 5638 5635 5631 5629 5627 5624 5620 5617 5616 5613 5610 5608 5606 5604 5601 5598 5596 5596 5599 5603 5604 5607
5748 5746 5742 5739 5736 5734 5731 5728 5725 5721 5717 5713 5709 5705 5701 5697 5694 5690 5686 5683 5679 5676 5672 5669 5665 5662 5659 5656 5652 5649 5646 5642 5637 5634 5631 5628 5624 5622 5620 5618 5614 5611 5609 5605 5602 5599 5595 5592 5590 5589 5592 5595 5595 5595
5747 5745 5742 5739 5737 5735 5732 5727 5724 5720 5716 5711 5707 5703 5699 5695 5691 5688 5684 5681 5678 5675 5671 5667 5664 5661 5657 5653 5650 5647 5644 5640 5636 5633 5630 5626 5623 5619 5615 5612 5610 5608 5606 5603 5600 5597 5594 5590 5589 5588 5588 5588 5589 5588
5746 5744 5741 5739 5737 5734 5730 5726 5723 5719 5715 5711 5706 5702 5698 5694 5691 5687 5684 5680 5676 5673 5671 5667 5664 5660 5656 5652 5649 5644 5641 5638 5634 5629 5625 5622 5618 5614 5611 5607 5605 5603 5599 5598 5596 5593 5591 5588 5586 5583 5582 5582 5581 5582
5744 5743 5740 5738 5736 5733 5728 5725 5722 5717 5713 5710 5706 5702 5697 5692 5689 5686 5683 5680 5676 5672 5668 5665 5662 5658 5655 5650 5646 5641 5637 5633 5629 5625 5620 5616 5612 5608 5605 5601 5598 5596 5594 5592 5590 5588 5586 5583 5582 5581 5579 5577 5575 5574
5743 5741 5739 5737 5735 5732 5728 5725 5721 5717 5714 5710 5706 5702 5697 5693 5688 5684 5682 5678 5675 5671 5668 5664 5660 5656 5652 5648 5642 5637 5630 5625 5621 5616 5612 5608 5605 5602 5598 5595 5592 5590 5588 5586 5584 5583 5581 5580 5578 5576 5574 5573 5572 5572
5741 5739 5738 5736 5734 5731 5728 5724 5721 5717 5713 5710 5706 5702 5697 5692 5689 5684 5680 5677 5673 5669 5664 5660 5657 5652 5648 5643 5636 5629 5623 5618 5613 5609 5604 5600 5596 5594 5591 5588 5585 5583 5581 5578 5576 5576 5575 5574 5572 5571 5570 5568 5566 5565
5740 5738 5737 5735 5733 5730 5727 5724 5721 5717 5713 5710 5706 5701 5696 5692 5687 5684 5680 5674 5667 5663 5661 5657 5653 5648 5643 5637 5629 5623 5616 5611 5606 5601 5597 5593 5588 5585 5583 5581 5579 5576 5574 5572 5570 5568 5566 5564 5565 5565 5563 5563 5561 5560
5738 5737 5735 5734 5731 5729 5726 5723 5720 5716 5712 5708 5705 5700 5695 5691 5686 5681 5676 5671 5666 5661 5657 5652 5647 5642 5636 5629 5621 5616 5609 5604 5598 5594 5590 5587 5584 5580 5578 5576 5573 5570 5567 5565 5564 5562 5560 5558 5555 5554 5554 5554 5553 5553
5736 5735 5734 5732 5730 5727 5725 5722 5719 5715 5711 5707 5703 5699 5693 5688 5683 5676 5671 5666 5662 5657 5653 5648 5642 5636 5630 5623 5615 5608 5602 5598 5593 5589 5585 5582 5579 5576 5571 5567 5565 5563 5560 5558 5556 5555 5553 5552 5549 5547 5545 5545 5545 5545
5734 5733 5732 5731 5728 5726 5724 5721 5718 5713 5710 5706 5701 5696 5690 5685 5681 5674 5667 5661 5658 5655 5650 5644 5639 5632 5624 5616 5609 5602 5596 5591 5587 5583 5579 5575 5571 5567 5563 5560 5556 5553 5550 5548 5547 5545 5544 5542 5541 5539 5538 5537 5536 5537
5732 5732 5730 5729 5727 5725 5723 5719 5716 5713 5708 5702 5698 5693 5688 5683 5678 5673 5669 5663 5658 5652 5647 5641 5635 5626 5617 5610 5603 5596 5591 5586 5581 5575 5571 5565 5560 5556 5552 5548 5545 5542 5540 5538 5536 5534 5533 5533 5533 5532 5530 5528 5528 5528
5732 5731 5729 5727 5725 5723 5721 5718 5715 5709 5704 5700 5694 5690 5684 5679 5676 5670 5666 5660 5654 5648 5641 5635 5626 5619 5612 5606 5599 5592 5586 5581 5575 5570 5564 5558 5552 5546 5542 5537 5534 5531 5529 5527 5526 5524 5523 5523 5523 5523 5522 5521 5520 5520
5729 5728 5727 5725 5723 5721 5718 5715 5712 5709 5704 5699 5694 5689 5685 5681 5675 5670 5663 5656 5648 5642 5636 5629 5621 5614 5608 5601 5594 5588 5581 5575 5568 5563 5557 5551 5544 5539 5534 5529 5525 5522 5519 5516 5514 5513 5513 5513 5514 5514 5514 5514 5514 5514
5728 5726 5724 5722 5721 5720 5718 5714 5711 5708 5704 5698 5692 5686 5682 5677 5672 5666 5659 5652 5645 5638 5630 5623 5616 5610 5603 5595 5589 5583 5577 5570 5563 5556 5549 5543 5536 5530 5524 5518 5514 5511 5508 5507 5506 5505 5505 5504 5505 5506 5506 5507 5508 5510
5726 5724 5723 5721 5719 5717 5715 5713 5710 5707 5702 5696 5690 5684 5680 5675 5669 5663 5657 5649 5642 5634 5626 5620 5613 5607 5600 5593 5586 5580 5574 5566 5559 5552 5544 5537 5528 5521 5515 5509 5504 5500 5498 5497 5497 5497 5498 5499 5499 5500 5501 5502 5503 5505
5724 5722 5720 5718 5717 5715 5714 5712 5710 5706 5702 5696 5689 5682 5677 5672 5667 5661 5655 5648 5639 5631 5624 5617 5611 5604 5598 5591 5585 5579 5571 5562 5555 5547 5539 5531 5522 5514 5506 5500 5495 5493 5491 5491 5490 5490 5491 5493 5494 5496 5497 5499 5501 5503
5722 5720 5718 5716 5715 5714 5713 5711 5707 5703 5698 5694 5688 5682 5676 5671 5666 5659 5653 5646 5638 5630 5624 5617 5609 5601 5594 5588 5583 5576 5568 5561 5552 5543 5534 5525 5516 5507 5501 5496 5492 5490 5488 5487 5487 5487 5489 5490 5492 5494 5496 5497 5499 5501
5721 5719 5717 5715 5714 5712 5710 5708 5705 5702 5698 5693 5687 5682 5676 5669 5664 5659 5651 5644 5636 5627 5620 5614 5607 5600 5593 5588 5583 5577 5571 5564 5556 5548 5538 5528 5519 5510 5503 5498 5494 5491 5489 5488 5488 5488 5489 5490 5492 5495 5497 5498 5500 5501
5720 5718 5716 5714 5713 5711 5708 5705 5703 5701 5697 5691 5686 5680 5674 5668 5662 5656 5650 5643 5636 5628 5621 5615 5608 5602 5595 5590 5584 5578 5572 5565 5558 5550 5542 5533 5525 5517 5511 5505 5501 5498 5495 5494 5493 5493 5493 5494 5495 5497 5499 5500 5501 5502
5717 5716 5715 5713 5710 5707 5704 5702 5700 5698 5694 5690 5685 5679 5674 5668 5661 5656 5649 5643 5637 5630 5624 5617 5610 5603 5596 5591 5585 5579 5574 5568 5563 5557 5550 5543 5536 5528 5521 5516 5511 5507 5505 5503 5502 5501 5501 5501 5501 5502 5502 5503 5503 5504
Wind_Speed
40 30 19 24 25 17 20 25 27 28 20 24 22 22 25 23 26 28 31 37 39 39 38 41 39 33 27 24 23 16 11 5 23 10 23 31 31 30 23 20 41 52 57 58 60 70 56 57 56 56 61 60 58 57
35 19 21 25 23 16 21 25 27 30 23 21 19 19 21 23 23 27 32 36 41 44 46 47 45 40 33 25 20 19 11 11 13 17 22 26 32 25 23 32 41 49 57 60 60 60 58 63 57 55 61 62 57 57
23 19 22 24 24 21 21 24 27 29 28 18 19 17 17 21 23 27 29 31 38 43 43 46 48 46 46 41 27 18 13 12 9 16 24 26 29 23 21 28 27 34 42 60 63 68 47 64 65 50 60 62 60 57
18 21 23 25 26 25 23 23 24 28 28 15 17 15 15 19 23 27 29 32 34 37 41 44 46 48 50 50 45 31 23 19 15 12 14 18 20 13 12 12 14 26 40 50 57 60 67 48 64 56 56 59 60 60
20 21 23 26 26 26 25 22 20 23 23 16 16 13 17 17 22 25 27 28 32 36 36 39 40 44 46 48 46 38 34 32 19 16 17 20 15 8 4 3 16 16 32 53 58 57 57 68 54 63 54 64 66 67
20 19 21 24 26 29 29 23 17 17 19 16 16 14 14 15 18 21 23 25 29 34 33 35 35 37 39 40 40 42 40 33 26 23 21 11 9 5 7 8 9 10 6 19 47 60 60 62 68 68 73 49 74 73
18 19 19 19 22 25 27 26 22 19 18 16 17 15 11 13 15 17 18 19 21 25 29 31 33 34 35 35 37 37 36 35 34 31 21 16 3 19 22 17 15 13 12 17 52 57 55 57 66 73 50 74 69 78
17 18 18 17 19 22 25 24 24 21 19 18 20 16 14 13 13 16 16 17 19 20 19 30 27 31 29 28 28 29 30 29 27 27 25 17 12 5 9 18 24 25 28 26 21 48 61 58 58 68 59 58 53 57
16 18 19 18 18 19 21 24 23 23 21 17 19 19 15 14 17 17 17 18 19 19 20 19 20 23 23 23 22 21 23 22 21 20 18 18 10 0 3 4 4 4 13 31 37 31 56 61 63 66 70 77 67 54
16 18 19 18 18 18 18 21 23 23 18 15 16 15 15 17 18 20 21 20 19 19 19 20 18 19 21 21 20 19 21 20 18 16 18 17 16 13 7 3 2 2 3 1 15 34 50 52 62 69 70 70 70 74
15 17 17 18 17 17 17 19 19 19 19 17 16 15 15 15 15 17 17 17 18 19 20 20 19 19 20 19 20 20 18 17 16 15 13 15 16 14 11 8 4 1 4 7 10 17 24 35 55 62 68 77 78 74
13 15 17 16 15 15 15 16 19 20 20 18 17 19 18 14 13 12 14 14 16 18 18 20 21 21 22 22 21 21 21 20 19 19 14 12 13 13 13 11 9 6 2 4 7 9 11 16 22 45 69 71 72 74
12 14 14 14 13 13 15 16 16 18 19 19 19 18 17 16 15 15 14 14 17 19 19 20 21 22 22 22 22 22 23 23 22 19 19 16 11 10 13 14 14 16 16 15 11 9 8 8 12 18 27 41 60 75
11 10 11 13 13 14 14 16 18 20 22 22 23 21 20 18 17 16 17 18 17 18 20 22 21 21 21 19 19 19 21 22 23 23 21 19 19 16 12 13 16 19 18 19 21 20 17 13 12 13 20 26 36 43
8 7 10 12 13 14 16 17 19 21 22 22 22 22 21 19 19 18 18 19 19 18 20 21 19 19 20 20 19 20 21 22 23 22 21 20 20 19 18 15 12 15 15 15 18 19 17 19 16 8 16 15 14 17
5 6 9 10 13 16 17 20 21 21 21 22 20 19 18 18 19 18 16 16 18 20 20 18 17 17 19 19 19 21 22 21 21 24 23 21 20 21 19 18 16 14 15 15 14 16 19 18 17 20 17 12 15 16
3 6 8 10 13 15 18 20 20 21 23 21 19 19 19 19 20 18 18 18 19 19 18 18 19 19 20 20 21 23 24 25 23 23 24 22 21 22 22 18 18 17 16 16 17 15 15 19 19 17 15 19 17 18
2 4 7 11 13 15 16 18 19 19 19 19 21 22 23 21 22 22 19 20 19 15 12 13 16 20 23 25 28 29 29 30 27 24 24 23 24 25 21 20 19 19 18 17 18 18 17 14 16 18 20 21 19 20
2 5 9 11 13 15 16 18 20 21 21 18 18 14 20 21 20 20 20 20 19 17 18 20 22 25 28 30 31 31 31 30 28 27 26 27 28 25 23 22 21 21 20 20 20 20 19 19 19 16 17 19 22 22
3 6 9 11 12 14 16 18 21 21 21 20 19 19 28 23 21 20 19 19 24 21 20 23 22 24 32 35 33 30 28 28 29 29 27 28 27 24 21 19 17 16 16 16 17 17 20 23 22 20 20 19 17 18
6 8 9 10 12 14 15 17 20 21 18 21 23 27 28 23 18 16 16 19 19 21 20 22 25 28 33 38 32 28 27 28 30 29 26 23 22 24 23 19 18 18 19 18 18 19 19 19 22 21 21 20 21 20
6 7 8 9 11 14 15 14 19 20 19 20 21 20 20 21 30 30 27 24 26 21 21 29 32 36 38 32 29 28 29 28 26 22 20 21 22 22 23 25 23 23 23 21 20 20 19 19 21 23 24 22 23 24
5 5 6 8 10 12 14 17 21 20 21 20 24 26 26 21 25 29 27 28 15 23 25 33 38 39 35 32 31 27 28 25 23 24 26 28 29 28 27 28 28 27 26 24 22 20 19 20 20 22 22 24 24 24
4 5 6 8 10 12 16 11 14 25 26 26 20 22 24 23 27 30 28 25 29 33 30 29 37 34 34 32 29 27 27 28 29 31 32 34 33 32 32 31 29 28 27 25 23 22 21 20 18 19 20 23 23 24
5 6 7 9 11 15 16 14 15 25 30 31 29 28 21 19 28 28 37 34 36 38 30 37 36 34 31 28 28 29 30 30 29 29 29 29 28 27 27 29 29 27 25 23 22 22 21 19 18 18 19 20 22 22
8 8 8 8 11 16 17 15 19 24 25 29 29 26 20 28 27 29 37 37 39 38 36 37 35 31 30 32 33 33 34 35 33 31 29 28 27 27 25 24 25 25 24 25 23 21 19 18 17 16 15 16 17 18
11 10 10 10 11 12 14 15 17 22 26 29 31 30 30 38 37 39 39 40 40 40 39 39 34 32 36 37 36 35 36 37 35 33 33 33 33 32 32 31 29 26 23 21 19 18 17 16 15 14 13 14 15 14
13 11 10 10 10 13 14 14 17 20 27 31 32 33 34 37 40 43 42 42 42 43 41 36 34 37 36 34 33 35 36 36 35 35 35 35 35 34 31 29 27 24 23 19 16 15 13 10 11 11 11 11 11 10
13 12 12 13 13 11 11 13 16 18 25 33 36 37 38 41 42 45 42 42 43 43 38 34 38 39 38 31 32 34 38 39 39 40 39 38 36 33 27 24 21 20 17 12 10 10 8 6 6 6 6 7 8 6
13 12 13 12 12 12 11 11 16 20 23 27 31 35 35 38 42 42 41 42 42 39 34 36 40 42 40 33 35 36 38 38 40 42 42 40 37 32 26 21 17 14 10 7 4 3 1 1 2 4 4 3 3 4
11 10 12 12 13 11 9 12 15 20 23 27 29 31 34 36 36 39 41 43 41 37 35 38 38 42 38 33 34 33 32 33 37 40 40 40 36 31 29 25 20 16 12 9 7 5 5 5 5 6 5 3 3 3
11 10 10 11 12 12 14 15 17 20 25 29 32 31 34 37 39 40 42 43 40 36 33 36 36 40 35 31 32 31 30 31 35 38 41 40 40 36 32 29 26 22 19 16 13 12 12 12 10 8 6 4 3 2
11 10 9 10 13 16 17 19 21 23 26 28 29 30 34 37 38 40 41 42 40 35 32 36 36 38 33 30 31 29 29 30 31 33 35 38 39 39 37 35 33 30 28 26 24 22 19 17 14 12 11 10 9 9
Wind_Direction
344 346 347 353 351 357 357 2 0 356 1 9 9 19 20 27 28 33 39 40 41 44 41 34 30 25 18 13 15 32 37 10 10 70 110 114 114 124 132 182 161 168 176 184 192 195 194 196 196 191 194 194 195 193
347 345 354 354 354 352 350 358 358 358 353 7 12 12 16 19 26 38 38 41 44 43 42 40 34 29 28 30 24 31 43 14 39 99 141 107 112 102 133 156 157 169 187 191 195 193 202 198 195 191 199 199 197 192
348 352 353 352 352 346 337 346 356 356 354 358 7 10 22 26 22 33 34 31 30 33 35 39 36 33 35 37 38 51 59 57 63 87 98 109 103 93 111 150 150 156 163 181 198 199 197 198 195 196 198 200 199 195
348 350 351 348 348 342 335 330 342 345 352 357 1 1 30 23 32 34 29 28 32 30 28 31 32 33 35 36 39 54 66 79 95 131 91 97 144 118 98 135 129 154 168 177 197 200 206 205 202 202 210 203 202 203
344 350 350 355 351 345 341 338 341 344 352 3 358 353 23 12 20 26 24 26 26 28 22 23 25 30 35 36 39 48 62 76 101 110 82 84 91 85 30 352 169 162 186 192 198 206 207 213 212 204 212 221 206 208
343 346 352 1 4 7 4 359 353 344 348 354 357 345 3 3 9 16 16 19 27 20 16 14 22 28 32 35 33 33 35 50 65 53 50 74 195 328 3 303 311 290 213 178 180 200 207 213 215 209 215 217 206 208
342 342 343 346 351 4 3 1 353 340 335 339 341 341 338 353 355 2 7 14 24 28 14 17 18 22 25 26 28 28 28 26 30 38 29 10 109 229 271 274 274 269 240 203 203 206 216 219 220 221 227 229 208 204
342 336 337 342 343 356 4 4 2 357 346 347 351 341 318 321 355 352 0 7 8 6 22 23 15 7 13 21 23 27 24 20 24 32 27 21 350 327 254 255 258 257 255 248 225 209 212 218 224 229 226 229 227 211
341 338 339 335 338 342 350 357 355 355 355 355 348 348 336 347 355 1 7 4 360 358 352 349 352 359 359 5 9 10 13 12 12 15 25 36 40 118 66 48 8 87 209 228 238 235 214 221 227 232 235 233 239 226
341 340 340 342 342 341 340 350 353 351 352 352 3 357 1 354 353 354 356 351 353 354 352 347 351 349 353 3 1 1 1 8 10 2 4 7 29 52 93 153 136 79 26 79 210 228 235 230 231 231 236 239 239 242
337 337 346 351 351 352 350 355 5 3 5 4 2 360 355 351 357 2 359 6 13 13 12 7 1 357 360 358 357 356 356 359 357 8 1 353 348 355 22 48 48 230 252 284 290 274 271 257 242 238 237 238 241 243
335 337 344 354 359 2 5 6 4 6 6 14 21 13 8 8 4 1 6 12 15 17 13 10 14 11 7 6 8 8 6 4 3 357 358 356 333 327 329 335 355 13 326 278 275 263 257 238 230 235 235 238 243 244
340 344 355 6 7 9 6 5 4 4 0 359 1 353 348 346 347 351 356 358 0 360 359 0 1 359 358 359 0 3 4 3 2 358 355 349 334 311 301 305 307 303 308 308 303 296 293 266 228 216 226 239 244 244
340 349 2 3 5 5 6 6 0 354 351 352 347 344 343 344 343 350 353 353 354 349 348 350 351 350 350 350 353 358 3 2 4 5 356 347 341 336 315 288 289 291 285 290 302 308 303 307 321 259 232 236 241 243
343 354 1 359 2 5 3 356 353 350 348 349 345 343 345 342 343 348 347 347 349 347 344 344 344 346 347 344 342 342 345 346 344 343 343 349 350 338 325 320 312 299 296 295 298 302 309 308 297 293 229 222 249 248
342 353 358 1 360 357 355 352 351 347 349 352 348 346 347 348 347 345 342 339 337 338 337 343 345 345 343 340 332 333 333 334 331 329 328 325 332 336 328 320 310 309 314 316 304 297 299 300 305 305 295 256 245 244
325 357 360 359 357 353 350 347 347 346 348 351 356 353 352 354 353 352 351 352 352 348 348 347 348 344 337 336 335 333 328 323 322 313 314 316 313 322 324 319 315 307 298 302 307 309 295 297 301 297 282 275 282 282
332 350 351 350 349 348 345 343 346 349 343 1 2 359 352 352 349 345 354 348 345 343 341 342 345 344 341 335 330 329 326 324 324 321 318 316 314 317 317 312 306 302 299 291 288 290 294 293 281 291 294 278 266 256
325 335 344 346 344 342 341 340 345 347 346 351 356 3 0 346 342 335 338 340 338 333 339 345 341 345 343 336 329 325 322 322 322 322 319 316 317 317 315 315 313 307 300 292 282 277 279 282 285 282 276 280 288 277
322 332 336 337 339 338 341 341 348 349 345 343 342 336 345 351 339 331 328 322 318 324 335 328 329 334 346 339 329 323 323 322 319 319 320 319 320 327 335 331 325 315 309 306 299 289 280 277 272 273 275 274 271 272
321 327 326 330 336 339 343 351 1 2 353 341 346 339 333 333 336 327 322 322 313 319 323 333 330 332 341 336 327 326 324 321 320 322 321 319 320 319 322 321 314 306 303 301 297 295 291 284 281 277 269 268 268 267
315 318 321 334 337 341 342 345 353 358 5 358 339 345 355 355 358 346 320 328 324 312 308 339 337 333 335 332 330 326 331 329 327 326 322 319 316 317 316 315 317 311 304 301 297 295 291 285 280 277 278 274 263 262
302 312 325 334 340 346 337 336 350 359 339 335 347 351 355 343 353 357 358 351 330 329 314 317 326 328 334 338 335 334 339 335 332 326 323 321 320 319 317 315 313 308 303 301 299 293 285 279 276 276 275 274 272 262
296 309 324 326 331 339 345 328 347 344 345 344 322 337 331 338 336 337 354 346 343 336 332 331 334 337 338 340 345 343 340 337 332 328 326 323 322 320 315 311 308 303 300 298 294 290 286 282 276 272 273 273 271 271
294 301 312 320 334 341 344 354 327 346 355 3 3 346 325 321 333 335 347 346 351 347 339 340 344 345 347 349 345 342 338 335 333 329 328 326 322 316 313 310 306 303 302 297 293 290 286 282 278 276 272 268 267 268
338 317 319 324 333 330 338 339 340 350 341 342 358 9 353 342 341 336 344 347 342 348 343 344 350 351 351 347 345 346 346 346 343 342 341 336 331 329 324 315 310 308 304 300 297 293 289 284 280 272 263 258 256 262
355 347 333 323 321 327 334 346 349 343 332 341 345 353 358 3 357 352 350 349 351 350 352 353 353 351 352 350 351 353 352 348 347 345 342 337 333 328 326 323 317 312 304 295 289 285 284 282 277 268 258 253 250 252
344 339 339 336 335 339 349 352 350 351 349 351 350 349 351 352 350 352 356 354 350 350 352 353 354 353 353 351 356 357 355 352 350 348 343 341 336 332 326 318 313 307 302 301 295 285 276 269 264 258 250 248 250 246
336 337 335 336 336 342 351 349 347 347 356 354 344 341 346 351 350 353 355 352 351 352 352 355 354 354 353 357 358 357 356 357 356 354 351 348 344 338 332 326 322 319 318 314 297 285 279 265 251 239 229 226 225 226
334 334 330 333 331 333 345 0 0 356 351 348 344 339 338 341 341 348 352 354 355 354 355 357 356 354 356 358 357 358 359 360 360 359 359 358 355 354 356 354 346 348 344 348 328 295 289 191 175 173 171 173 188 196
325 326 326 326 330 328 336 353 359 357 355 353 341 334 338 344 345 352 354 355 356 357 359 0 358 356 356 356 357 360 1 6 7 8 10 11 15 17 18 21 23 29 31 37 52 68 85 97 113 134 139 142 135 135
316 323 329 323 317 326 331 342 349 348 348 349 345 344 347 347 349 354 356 357 357 1 1 359 358 359 358 359 1 6 12 13 14 17 19 22 26 30 33 36 40 46 52 58 62 65 74 84 91 100 104 101 113 126
305 307 316 322 321 317 318 329 338 346 349 348 349 348 346 346 350 354 355 354 357 2 0 359 359 1 2 2 5 13 18 18 17 20 25 29 33 36 40 44 49 54 58 63 67 70 73 76 77 76 77 81 82 80